Regional Weather Roundup
Issued by NWS

Home | Current Version | Previous Version | Graphics & Text | Print | Product List | Glossary On
Versions: 1 2 3 4 5 6 7 8 9 10 11 12 13 14 15 16 17 18 19 20 21 22 23 24 25 26 27 28 29 30 31 32 33 34 35 36 37 38 39 40 41 42 43 44 45 46 47 48 49 50
000
ASUS43 KFSD 250202
RWRSD

WEATHER ROUNDUP FOR SOUTH DAKOTA
NATIONAL WEATHER SERVICE SIOUX FALLS SD
800 PM CST WED DEC 24 2014

NOTE: "FAIR" INDICATES FEW OR NO CLOUDS BELOW 12,000 FEET WITH NO
SIGNIFICANT WEATHER AND/OR OBSTRUCTIONS TO VISIBILITY.


SDZ001>005-009-010-012>017-250300-
NORTHWEST AND NORTH CENTRAL SOUTH DAKOTA

CITY           SKY/WX    TMP DP  RH WIND       PRES   REMARKS
BUFFALO          N/A     36  27  69 N12       29.38S
FAITH            N/A     33  25  72 SW7       29.44F WCI  27
MOBRIDGE       CLOUDY    28  23  81 SE7       29.44F WCI  21
$$

SDZ012>016-024>037-041>051-057-063-072>074-250300-
SOUTHWEST AND SOUTH CENTRAL SOUTH DAKOTA

CITY           SKY/WX    TMP DP  RH WIND       PRES   REMARKS
RAPID CTY ARPT CLOUDY    32  25  75 CALM      29.43F
PIERRE         CLOUDY    25  19  78 SE6       29.49F WCI  18
CUSTER         CLOUDY    31  18  58 CALM      29.45F
PHILIP         CLOUDY    31  26  82 CALM      29.46F
PINE RIDGE     CLOUDY    31  24  75 SW8       29.48F WCI  23
WINNER         FAIR      35  23  61 SW14      29.50F WCI  26
$$

SDZ004>011-016>023-039-040-250300-
NORTHEAST SOUTH DAKOTA

CITY           SKY/WX    TMP DP  RH WIND       PRES   REMARKS
ABERDEEN       CLOUDY    28  25  88 S14       29.51F WCI  17
WATERTOWN      CLOUDY    25  23  92 S9        29.54F WCI  15
$$

SDZ017-020-022-023-036>040-048>070-250300-
SOUTHEAST SOUTH DAKOTA

CITY           SKY/WX    TMP DP  RH WIND       PRES   REMARKS
SIOUX FALLS    CLOUDY    26  25  96 SW9       29.62F WCI  17
HURON          PTCLDY    25  24  96 S9        29.56F WCI  15
CHAMBERLAIN    PTCLDY    21  19  90 SE6       29.53F WCI  14
MITCHELL       CLEAR     28  25  88 S14       29.58F WCI  17
YANKTON        CLEAR     25  21  86 E6        29.64F WCI  18
$$

ABBREVIATIONS USED IN REMARKS
   TC - TEMPERATURE IN CELSIUS
  WCI - WIND CHILL INDEX
   HX - HEAT INDEX
  VSB - VISIBILITY




USA.gov is the U.S. government's official web portal to all federal, state and local government web resources and services.